Hourly Weather Roundup
Issued by NWS Central Illinois

Home | Current Version | Previous Version | Text Only | Print | Product List | Glossary On
Versions: 1 2 3 4 5 6 7 8 9 10 11 12 13 14 15 16 17 18 19 20 21 22 23 24 25 26 27 28 29 30 31 32 33 34 35 36 37 38 39 40 41 42 43 44 45 46 47 48 49 50
000
NZUS43 KILX 140810
HWRILX

AREA WEATHER ROUNDUP
NATIONAL WEATHER SERVICE, LINCOLN IL
200 AM CST SUN FEB 14 2016


CITY           SKY/WX    TMP DP  RH WIND       PRES   REMARKS
BLOOMINGTON    CLOUDY    17   5  59 SE9       30.40F WCI   6
CHAMPAIGN      CLOUDY    17   5  59 E9        30.41F WCI   6
DANVILLE       CLOUDY    16   5  62 E6        30.41F WCI   7
DECATUR        LGT SNOW  16  10  77 SE9       30.41S VSB 1   WCI   4
EFFINGHAM      CLOUDY    19   8  62 E7        30.43S WCI  10
FLORA          CLOUDY    22   6  50 E9        30.41F WCI  12
GALESBURG      LGT SNOW  16  13  88 SE7       30.36F WCI   6
JACKSONVILLE   CLOUDY    22  11  63 E10       30.37F WCI  11
LACON          CLOUDY    18   1  47 SE8       30.41F WCI   7
LAWRENCEVILLE  CLOUDY    20   3  48 E8        30.45F WCI  10
LITCHFIELD     CLOUDY    20   6  55 E9        30.38F WCI   9
$$


CITY           SKY/WX    TMP DP  RH WIND       PRES   REMARKS
LINCOLN        LGT SNOW  17  14  89 SE6       30.42S VSB 1   WCI   8
MACOMB         LGT SNOW  16  14  93 SE12      30.38F WCI   3
MATTOON        CLOUDY    17   4  56 SE10      30.41F WCI   5
MT CARMEL AP   CLOUDY    21   3  45 E12       30.43F WCI   9
OLNEY-NOBLE AP CLOUDY    21   5  49 E7        30.42F WCI  13
PARIS          CLOUDY    17   4  56 SE7       30.44F WCI   8
PEORIA         CLOUDY    19   3  49 S7        30.41F WCI  10
PONTIAC        CLOUDY    18   5  58 SE9       30.43F WCI   7
RANTOUL        CLOUDY    19   5  55 SE8       30.42F WCI   9
ROBINSON       CLOUDY    19   3  51 E8        30.46F WCI   8
SPRINGFIELD    MIX PCPN  20  10  65 SE12      30.39F WCI   8
TAYLORVILLE    CLOUDY    19   9  63 E10       30.40F WCI   8
$$

...REGIONAL REPORTS...


CITY           SKY/WX    TMP DP  RH WIND       PRES   REMARKS
CHICAGO O`HARE CLOUDY    11  -2  56 E5        30.43F WCI   3
KANKAKEE       MOCLDY    14   5  66 SE7       30.46R WCI   4
MOLINE         CLOUDY    19   0  43 SE10      30.37F WCI   7
MOUNT STERLING CLOUDY    18  12  77 E10       30.34F WCI   6
MOUNT VERNON   CLOUDY    21   3  45 E6        30.41R WCI  14
PITTSFIELD     CLOUDY    20  11  67 E12       30.35F WCI   9
QUINCY         CLOUDY    17  12  80 E13       30.32F WCI   4
ROCKFORD       CLOUDY    12   0  58 SE8       30.43S WCI   0
$$


CITY           SKY/WX    TMP DP  RH WIND       PRES   REMARKS
BURLINGTON     LGT SNOW  16  13  88 E9        30.33F FOG     WCI   4
CEDAR RAPIDS   FLURRIES  15   9  76 SE12      30.28F WCI   2
DES MOINES     CLOUDY    16   8  71 SE12      30.21F WCI   3
KIRKSVILLE     CLOUDY    19   6  57 SE17      30.24F WCI   4
OTTUMWA        CLOUDY    16  12  84 SE16      30.24F WCI   1
ST LOUIS       CLOUDY    24   7  48 E12       30.37F WCI  13
$$


CITY           SKY/WX    TMP DP  RH WIND       PRES   REMARKS
TERRE HAUTE    CLOUDY    17   3  54 SE7       30.46S WCI   8
EVANSVILLE     CLOUDY    24   4  42 E7        30.42F WCI  16
INDIANAPOLIS   CLOUDY    14  -1  51 E7        30.44R WCI   4
LAFAYETTE      CLOUDY    13   2  61 SE6       30.46F WCI   4
MADISON        CLOUDY     4  -6  63 SE6       30.38F WCI  -7
MILWAUKEE      CLOUDY     4  -5  66 CALM      30.43F
$$





USA.gov is the U.S. government's official web portal to all federal, state and local government web resources and services.